SWR327 EGLL-LSZH

Flight info

Callsign SWR327
Flight time N/A
Altitude 29000
Route DET L6 DVR UL9 KONAN DCT KOK DCT SISGA DCT RITAX DCT KRH M150 LAMGO/N0433F270 T721 SUL/N0420F250 T721 RILAX
Aircraft A21N/M-SDE2E3FGHIRWXY/LB1

Departure

Time 2026-05-05 06:52
Airport London Heathrow Airport (EGLL)

Arrival

Time N/A
Airport Zürich Airport (LSZH)
Time Latitude Longitude Altitude Speed Heading
2026-05-05 06:13 51.46824 -0.45112 89 ft 0 kts 360°
2026-05-05 06:40 51.46818 -0.45112 97 ft 3 kts 360°
2026-05-05 06:41 51.46799 -0.45112 89 ft 3 kts 360°
2026-05-05 06:41 51.46781 -0.45112 89 ft 3 kts 355°
2026-05-05 06:41 51.46765 -0.45099 89 ft 2 kts 321°
2026-05-05 06:41 51.46751 -0.45081 93 ft 3 kts 311°
2026-05-05 06:42 51.46746 -0.45070 89 ft 0 kts 281°
2026-05-05 06:45 51.46746 -0.45072 93 ft 1 kts 281°
2026-05-05 06:45 51.46749 -0.45108 91 ft 8 kts 274°
2026-05-05 06:45 51.46750 -0.45224 89 ft 12 kts 269°
2026-05-05 06:46 51.46749 -0.45375 89 ft 15 kts 269°
2026-05-05 06:46 51.46748 -0.45558 92 ft 18 kts 270°
2026-05-05 06:46 51.46748 -0.45769 92 ft 20 kts 270°
2026-05-05 06:46 51.46749 -0.46005 92 ft 22 kts 270°
2026-05-05 06:47 51.46750 -0.46252 89 ft 22 kts 270°
2026-05-05 06:47 51.46740 -0.46389 92 ft 2 kts 227°
2026-05-05 06:47 51.46721 -0.46407 93 ft 5 kts 199°
2026-05-05 06:47 51.46681 -0.46436 93 ft 7 kts 215°
2026-05-05 06:48 51.46658 -0.46511 94 ft 8 kts 268°
2026-05-05 06:48 51.46659 -0.46618 93 ft 11 kts 271°
2026-05-05 06:48 51.46658 -0.46762 93 ft 14 kts 268°
2026-05-05 06:48 51.46655 -0.46936 92 ft 17 kts 270°
2026-05-05 06:49 51.46656 -0.47141 92 ft 20 kts 270°
2026-05-05 06:49 51.46653 -0.47370 89 ft 20 kts 268°
2026-05-05 06:49 51.46607 -0.47490 92 ft 9 kts 189°
2026-05-05 06:49 51.46531 -0.47493 93 ft 13 kts 181°
2026-05-05 06:50 51.46484 -0.47426 91 ft 7 kts 94°
2026-05-05 06:50 51.46484 -0.47420 91 ft 0 kts 91°
2026-05-05 06:51 51.46484 -0.47419 91 ft 1 kts 91°
2026-05-05 06:51 51.46482 -0.47092 93 ft 60 kts 89°
2026-05-05 06:51 51.46488 -0.46097 89 ft 121 kts 90°
2026-05-05 06:51 51.46495 -0.44429 134 ft 169 kts 89°
2026-05-05 06:52 51.46481 -0.42520 634 ft 174 kts 91°
2026-05-05 06:52 51.46270 -0.40629 1370 ft 173 kts 110°
2026-05-05 06:52 51.45702 -0.38934 1976 ft 181 kts 123°
2026-05-05 06:52 51.44837 -0.37281 2198 ft 204 kts 126°
2026-05-05 06:53 51.44111 -0.35223 2493 ft 221 kts 108°
2026-05-05 06:53 51.43632 -0.32753 2766 ft 245 kts 104°
2026-05-05 06:53 51.43205 -0.29996 3208 ft 262 kts 101°
2026-05-05 06:53 51.42830 -0.27131 4025 ft 262 kts 100°
2026-05-05 06:54 51.42467 -0.24290 4955 ft 258 kts 100°
2026-05-05 06:54 51.42114 -0.21497 5797 ft 254 kts 100°
2026-05-05 06:54 51.41747 -0.18651 6047 ft 274 kts 101°
2026-05-05 06:54 51.41320 -0.15620 5962 ft 282 kts 102°
2026-05-05 06:55 51.40858 -0.12556 6067 ft 282 kts 103°
2026-05-05 06:55 51.40376 -0.09516 6095 ft 282 kts 104°
2026-05-05 06:55 51.39870 -0.06454 6243 ft 289 kts 104°
2026-05-05 06:55 51.39388 -0.03348 6799 ft 297 kts 103°
2026-05-05 06:56 51.38938 -0.00152 7722 ft 290 kts 102°
2026-05-05 06:56 51.38537 0.02973 8722 ft 282 kts 101°
2026-05-05 06:56 51.38169 0.06017 9685 ft 277 kts 102°
2026-05-05 06:56 51.37768 0.09009 10516 ft 273 kts 103°
2026-05-05 06:57 51.37315 0.12036 10917 ft 288 kts 104°
2026-05-05 06:57 51.36804 0.15226 11258 ft 303 kts 105°
2026-05-05 06:57 51.36268 0.18566 11641 ft 317 kts 104°
2026-05-05 06:57 51.35747 0.22177 10420 ft 367 kts 102°
2026-05-05 06:58 51.35230 0.26249 10875 ft 313 kts 102°
2026-05-05 06:58 51.34779 0.29493 12836 ft 305 kts 103°
2026-05-05 06:58 51.34293 0.32923 13005 ft 325 kts 103°
2026-05-05 06:58 51.33770 0.36551 13234 ft 343 kts 103°
2026-05-05 06:59 51.33225 0.40334 13546 ft 357 kts 103°
2026-05-05 06:59 51.32657 0.44266 13819 ft 371 kts 103°
2026-05-05 06:59 51.32061 0.48369 14005 ft 385 kts 103°
2026-05-05 06:59 51.31447 0.52577 14331 ft 391 kts 103°
2026-05-05 07:00 51.30825 0.56830 14811 ft 394 kts 103°
2026-05-05 07:00 51.30169 0.61105 15243 ft 398 kts 105°
2026-05-05 07:00 51.29434 0.65394 15687 ft 401 kts 107°
2026-05-05 07:00 51.28653 0.69683 16174 ft 403 kts 107°
2026-05-05 07:01 51.27849 0.73990 16667 ft 406 kts 107°
2026-05-05 07:01 51.27310 0.76860 16980 ft 408 kts 107°
2026-05-05 07:01 51.26492 0.81215 17437 ft 411 kts 107°
2026-05-05 07:01 51.25395 0.87092 18076 ft 415 kts 107°
2026-05-05 07:02 51.24848 0.90031 18383 ft 416 kts 107°
2026-05-05 07:02 51.23753 0.95934 18907 ft 420 kts 108°
2026-05-05 07:02 51.22918 1.00430 19225 ft 425 kts 108°
2026-05-05 07:02 51.22074 1.04969 19622 ft 427 kts 108°
2026-05-05 07:03 51.21512 1.07988 19877 ft 429 kts 108°
2026-05-05 07:03 51.20656 1.12573 20250 ft 432 kts 108°
2026-05-05 07:03 51.19794 1.17176 20630 ft 434 kts 108°
2026-05-05 07:03 51.18927 1.21795 21032 ft 436 kts 108°
2026-05-05 07:04 51.18053 1.26440 21395 ft 439 kts 108°
2026-05-05 07:04 51.17175 1.31108 21785 ft 441 kts 108°
2026-05-05 07:04 51.16481 1.35897 22145 ft 445 kts 101°
2026-05-05 07:04 51.16064 1.40813 22526 ft 448 kts 98°
2026-05-05 07:05 51.15752 1.45703 22929 ft 451 kts 97°
2026-05-05 07:05 51.15494 1.50694 23326 ft 453 kts 96°
2026-05-05 07:05 51.15261 1.55715 23672 ft 456 kts 96°
2026-05-05 07:05 51.15034 1.60776 23965 ft 460 kts 96°
2026-05-05 07:06 51.14800 1.65880 24245 ft 463 kts 96°
2026-05-05 07:06 51.14557 1.71009 24534 ft 466 kts 96°
2026-05-05 07:06 51.14306 1.76171 24804 ft 469 kts 96°
2026-05-05 07:06 51.14046 1.81368 25112 ft 471 kts 96°
2026-05-05 07:07 51.13781 1.86575 25491 ft 470 kts 97°
2026-05-05 07:07 51.13513 1.91765 25833 ft 471 kts 96°
2026-05-05 07:07 51.13242 1.96968 26108 ft 473 kts 97°
2026-05-05 07:07 51.12967 2.02194 26456 ft 473 kts 97°
2026-05-05 07:08 51.12691 2.07411 26822 ft 473 kts 97°
2026-05-05 07:08 51.12413 2.12629 27173 ft 473 kts 97°
2026-05-05 07:08 51.12133 2.17840 27520 ft 473 kts 97°
2026-05-05 07:08 51.11849 2.23062 27875 ft 473 kts 97°
2026-05-05 07:09 51.11563 2.28286 28236 ft 473 kts 97°
2026-05-05 07:09 51.11275 2.33509 28586 ft 473 kts 97°
2026-05-05 07:09 51.10985 2.38724 28908 ft 474 kts 97°
2026-05-05 07:10 51.10399 2.49137 28993 ft 471 kts 97°
2026-05-05 07:10 51.09782 2.59529 28982 ft 470 kts 100°
2026-05-05 07:11 51.07988 2.69343 28987 ft 464 kts 117°
2026-05-05 07:11 51.05154 2.78552 28980 ft 463 kts 120°
2026-05-05 07:12 51.02113 2.87594 28969 ft 462 kts 120°
2026-05-05 07:12 50.99066 2.96574 28973 ft 461 kts 120°
2026-05-05 07:13 50.96040 3.05556 28951 ft 461 kts 120°
2026-05-05 07:13 50.93023 3.14535 28968 ft 461 kts 120°
2026-05-05 07:14 50.90000 3.23512 28955 ft 461 kts 120°
2026-05-05 07:14 50.86968 3.32477 28954 ft 461 kts 120°
2026-05-05 07:15 50.83932 3.41423 28952 ft 461 kts 120°
2026-05-05 07:15 50.80888 3.50366 28948 ft 464 kts 120°
2026-05-05 07:16 50.77804 3.59383 28941 ft 467 kts 121°
2026-05-05 07:16 50.74731 3.68338 28939 ft 467 kts 121°
2026-05-05 07:17 50.68586 3.86156 28933 ft 466 kts 121°
2026-05-05 07:17 50.51389 4.40452 28938 ft 470 kts 117°
2026-05-05 07:18 50.40094 4.77519 28919 ft 471 kts 118°
2026-05-05 07:18 50.28676 5.14483 28921 ft 472 kts 120°
2026-05-05 07:19 50.17064 5.51491 28914 ft 474 kts 120°
2026-05-05 07:19 50.05169 5.88139 28920 ft 472 kts 124°
2026-05-05 07:20 49.92108 6.22677 28913 ft 464 kts 124°
2026-05-05 07:20 49.78940 6.57442 28889 ft 464 kts 124°
2026-05-05 07:21 49.65768 6.91753 28904 ft 466 kts 125°
2026-05-05 07:21 49.52436 7.26040 28921 ft 466 kts 125°
2026-05-05 07:22 49.39001 7.60140 28911 ft 469 kts 126°
2026-05-05 07:22 49.25359 7.94320 28930 ft 470 kts 127°
2026-05-05 07:23 49.11616 8.28313 28933 ft 469 kts 127°
2026-05-05 07:23 48.99170 8.55387 28928 ft 467 kts 131°
2026-05-05 07:24 48.95412 8.63407 28754 ft 465 kts 131°
2026-05-05 07:24 48.86843 8.73889 27809 ft 445 kts 164°
2026-05-05 07:24 48.80310 8.75501 27230 ft 434 kts 186°
2026-05-05 07:24 48.77314 8.75036 26914 ft 433 kts 189°
2026-05-05 07:25 48.74324 8.74321 26937 ft 439 kts 192°
2026-05-05 07:25 48.71300 8.73486 26894 ft 441 kts 192°
2026-05-05 07:25 48.61873 8.70718 20381 ft 438 kts 192°
2026-05-05 07:25 48.57387 8.70706 24898 ft 221 kts 170°